Home   Weather   Edinburgh   Past weeks

Flag for United Kingdom Past Weather in Edinburgh, Scotland, United Kingdom — Yesterday and Last 2 Weeks

Now
54 °F

Cool.


Feels Like: 51 °F
Forecast: 47 / 55 °F
Wind: 9 mph from Southeast

Location: Edinburgh Airport

Current Time: Oct 21, 2017 at 8:10:49 am

Latest Report: Oct 21, 2017 at 7:50 am


Visibility: N/A

Pressure: 29.24 "Hg

Humidity: 82%

Dew Point: 48 °F

Location of EdinburghLocation

Past Weather in Edinburgh — Graph

°F

Edinburgh Temperature Yesterday

Maximum temperature yesterday: 61 °F (at 2:20 pm)
Minimum temperature yesterday: 50 °F (at 5:20 am)
Average temperature yesterday: 54 °F

High & Low Weather Summary for the Past Weeks

 TemperatureHumidityPressure
High66 °F (Oct 13, 10:50 am)100% (Oct 8, 1:50 am)30.30 "Hg (Oct 8, 1:50 am)
Low39 °F (Oct 6, 6:20 am)63% (Oct 12, 4:20 pm)29.27 "Hg (Oct 21, 5:20 am)
Average54 °F86%29.77 "Hg
* Reported Oct 6 6:20 am — Oct 21 6:50 am, Edinburgh. Weather by CustomWeather, © 2017

Note: Actual official high and low records may vary slightly from our data, if they occured in-between our weather recording intervals... More about our weather records

Advertising

Edinburgh Weather History for the Previous 24 Hours

Scroll right to see more
 ConditionsComfort  
Time TempWeatherWind HumidityBarometerVisibility
6:50 am
Sat, Oct 21
54 °FPassing clouds.9 mph82%29.27 "HgN/A
6:20 am54 °FPassing clouds.8 mph82%29.27 "HgN/A
5:50 am54 °FPassing clouds.9 mph82%29.27 "HgN/A
5:20 am54 °FPartly cloudy.8 mph82%29.27 "HgN/A
4:50 am50 °FMostly cloudy.5 mph94%29.30 "HgN/A
4:20 am50 °FPassing clouds.5 mph94%29.30 "HgN/A
3:50 am50 °FPassing clouds.8 mph94%29.33 "HgN/A
3:20 am52 °FLight rain. Mostly cloudy.7 mph88%29.33 "HgN/A
2:50 am52 °FLight rain. Partly cloudy.6 mph88%29.36 "HgN/A
2:20 am52 °FLight rain. Overcast.5 mph82%29.36 "HgN/A
1:50 am52 °FLight rain. Overcast.10 mph82%29.36 "HgN/A
1:20 am52 °FLight rain. Overcast.9 mph82%29.36 "HgN/A
12:50 am52 °FLight rain. Passing clouds.9 mph82%29.39 "HgN/A
12:20 am52 °FLight rain. Overcast.7 mph82%29.42 "HgN/A
11:50 pm
Fri, Oct 20
50 °FLight rain. Passing clouds.6 mph94%29.45 "HgN/A
11:20 pm50 °FLight rain. Clear.8 mph94%29.45 "HgN/A
10:50 pm52 °FClear.6 mph82%29.47 "Hg10 mi
10:20 pm52 °FClear.8 mph77%29.50 "Hg10 mi
9:50 pm52 °FPassing clouds.9 mph82%29.50 "HgN/A
9:20 pm52 °FPassing clouds.6 mph82%29.50 "HgN/A
8:50 pm52 °FPassing clouds.3 mph82%29.53 "HgN/A
8:20 pm54 °FPassing clouds.7 mph77%29.53 "HgN/A
7:50 pm54 °FPassing clouds.6 mph77%29.53 "HgN/A
7:20 pm54 °FPassing clouds.12 mph82%29.53 "HgN/A
6:50 pm55 °FPassing clouds.14 mph77%29.56 "HgN/A
6:20 pm57 °FPassing clouds.10 mph82%29.56 "HgN/A
5:50 pm57 °FScattered clouds.3 mph77%29.53 "HgN/A
5:20 pm57 °FScattered clouds.2 mph82%29.53 "HgN/A
4:50 pm57 °FPassing clouds.3 mph77%29.53 "HgN/A
4:20 pm59 °FPassing clouds.1 mph72%29.53 "HgN/A
3:50 pm59 °FPassing clouds.8 mph72%29.56 "HgN/A
3:20 pm59 °FScattered clouds.10 mph77%29.56 "HgN/A
2:50 pm59 °FScattered clouds.8 mph82%29.56 "HgN/A
2:20 pm61 °FScattered clouds.7 mph72%29.56 "HgN/A
1:50 pm59 °FScattered clouds.5 mph82%29.53 "HgN/A
1:20 pm59 °FScattered clouds.5 mph77%29.53 "HgN/A
12:50 pm59 °FScattered clouds.7 mph82%29.53 "HgN/A
12:20 pm59 °FScattered clouds.10 mph82%29.53 "HgN/A
11:50 am57 °FScattered clouds.10 mph88%29.53 "HgN/A
11:20 am57 °FPartly sunny.10 mph88%29.53 "HgN/A
10:50 am55 °FScattered clouds.9 mph94%29.50 "HgN/A
10:20 am54 °FScattered clouds.8 mph100%29.50 "Hg5 mi
9:50 am50 °FScattered clouds.6 mph100%29.50 "Hg5 mi
9:20 am52 °FScattered clouds.6 mph94%29.50 "Hg4 mi
8:50 am52 °FScattered clouds.5 mph94%29.47 "Hg4 mi
8:20 am52 °FFog.6 mph100%29.47 "Hg3 mi
Weather by CustomWeather, © 2017

See weather overview